Home > Weather > Shiprock > Past weeks

Flag for U.S.A. Weather for the Past 2 Weeks in Shiprock, New Mexico, U.S.A.

Now
29 °F

Clear.


Feels Like: 20 °F
Forecast: 25 / 60 °F
Wind: 9 mph from East

Location: Four Corners Regional Airport

Current Time: Feb 13, 2016 at 4:51:03 AM

Latest Report: Feb 13, 2016 at 3:53 AM


Visibility: 10 mi

Pressure: 30.27 "Hg (25.08 "Hg at 1492m altitude)

Humidity: 82%

Dew point: 24 °F

Location of ShiprockLocation

Historic Weather in Shiprock — Graph

°F

Shiprock Temperature Yesterday

Maximum temperature yesterday: 61 °F (at 3:53 PM)
Minimum temperature yesterday: 25 °F (at 1:53 AM)
Average temperature yesterday: 39 °F

High & Low Weather Summary for the Past Weeks

 TemperatureHumidityPressure
High61 °F (Feb 12, 3:53 PM)96% (Feb 1, 4:53 AM)30.67 "Hg (Feb 1, 4:53 AM)
Low4 °F (Feb 4, 5:53 AM)20% (Feb 12, 3:53 PM)29.36 "Hg (Feb 1, 3:53 AM)
Average31 °F64%30.26 "Hg
* Reported Jan 29 3:53 AM — Feb 13 3:53 AM, Shiprock, Weather by CustomWeather, © 2016

Note: Actual official high and low records may vary slightly from our data, if they occured in-between our weather recording intervals... More about our weather records

Advertising

Shiprock Weather History for the Previous 24 Hours

 ConditionsComfort  
Time TempWeatherWind HumidityBarometerVisibility
3:53 AM
Sat, Feb 13
29 °FClear.9 mph82%30.27 "Hg10 mi
2:53 AM29 °FClear.8 mph82%30.29 "Hg10 mi
1:53 AM30 °FClear.5 mph79%30.29 "Hg10 mi
12:53 AM31 °FClear.8 mph79%30.31 "Hg10 mi
11:53 PM
Fri, Feb 12
31 °FClear.7 mph79%30.34 "Hg10 mi
10:53 PM33 °FClear.7 mph72%30.35 "Hg10 mi
9:53 PM33 °FClear.5 mph72%30.38 "Hg10 mi
8:53 PM34 °FClear.8 mph70%30.38 "Hg10 mi
7:53 PM42 °FClear.No wind51%30.36 "Hg10 mi
6:53 PM48 °FClear.5 mph34%30.35 "Hg10 mi
5:53 PM52 °FClear.5 mph28%30.32 "Hg10 mi
4:53 PM59 °FSunny.No wind21%30.30 "Hg10 mi
3:53 PM61 °FSunny.No wind20%30.30 "Hg10 mi
2:53 PM59 °FSunny.3 mph21%30.30 "Hg10 mi
1:53 PM58 °FSunny.No wind25%30.33 "Hg10 mi
12:53 PM54 °FSunny.No wind30%30.38 "Hg10 mi
11:53 AM49 °FSunny.No wind39%30.42 "Hg10 mi
10:53 AM45 °FSunny.6 mph48%30.46 "Hg10 mi
9:53 AM38 °FSunny.7 mph60%30.49 "Hg10 mi
8:53 AM33 °FSunny.6 mph72%30.50 "Hg10 mi
7:53 AM28 °FSunny.7 mph81%30.49 "Hg10 mi
6:53 AM25 °FClear.5 mph85%30.48 "Hg10 mi
5:53 AM26 °FClear.6 mph84%30.45 "Hg10 mi
4:53 AM25 °FClear.6 mph85%30.42 "Hg10 mi
Weather by CustomWeather, © 2016

See weather overviewHow to use our weather pages